Simultaneous Nadir Overpasses (SNOs) Predictions

Prediction of SNOs between LANDSAT-8 and METOP-A Satellite Orbit:

Table of predicted SNOs for the next 14.0 days since TLE Epoch: 4/4/2020
Index Date (LANDSAT-8) Time (LANDSAT-8) Lat,Lon (LANDSAT-8) SZA (LANDSAT-8 ) Date (METOP-A) Time (METOP-A) Lat,Lon (METOP-A) SZA (METOP-A ) Distance(km) Time Diff (sec)
1 04/04/2020 06:04:16 81.49, 134.98 78.14 04/04/2020 06:03:31 81.49, 135.17 78.14 3.22 45
2 04/04/2020 06:53:43 -81.49, -57.47 101.89 04/04/2020 06:54:12 -81.49, -57.66 101.89 3.24 29
3 04/07/2020 01:38:30 81.48,-158.79 77.08 04/07/2020 01:37:54 81.49,-158.60 77.09 3.14 36
4 04/07/2020 02:27:57 -81.48, 8.80 102.95 04/07/2020 02:28:34 -81.48, 9.00 102.91 3.37 37
5 04/09/2020 21:12:43 81.49, -92.16 76.08 04/09/2020 21:12:16 81.48, -91.99 76.08 2.90 27
6 04/09/2020 22:02:10 -81.49, 75.45 103.94 04/09/2020 22:02:56 -81.48, 75.65 103.90 3.32 46
7 04/12/2020 16:46:56 81.48, -25.93 75.05 04/12/2020 16:46:38 81.49, -25.80 75.06 2.25 18
8 04/12/2020 17:36:23 -81.48, 141.71 104.97 04/12/2020 17:37:18 -81.48, 141.88 104.93 2.69 55
9 04/15/2020 12:21:09 81.49, 40.69 74.09 04/15/2020 12:21:00 81.48, 40.78 74.09 1.53 9




NCC Satellite Simultaneous Nadir Overpasses (SNOs) Prediction Service
